Tracking 28794 objects as of 19-Apr-2024
HD Live streaming from Space Station
objects crossing your sky now

SL-3 R/B

Track SL-3 R/B now!
10-day predictions


NORAD ID: 6660
Int'l Code: 1973-034B
Perigee: 846.7 km
Apogee: 913.5 km
Inclination: 81.2 °
Period: 102.4 minutes
Semi major axis: 7251 km
RCS: 7.6236 m2 (large)
Launch date: May 29, 1973
Source: Commonwealth of Independent States (former USSR) (CIS)
Launch site: PLESETSK MISSILE AND SPACE COMPLEX (PKMTR)

Note: This is a ROCKET BODY
Your satellite tracking list
Your tracking list is empty




NASA's NSSDC Master Catalog

Two Line Element Set (TLE):
1 06660U 73034B   24110.45202164  .00000403  00000-0  23664-3 0  9998
2 06660  81.2269 106.9381 0046073 270.4079  89.1810 14.06042719609157
Source of the keplerian elements: AFSPC